Bastia, France

5:12 PM CEST on September 21, 2017 (GMT +0200)
Poretta

Weather History for LFKB - November, 2012

Change the Weather History Date:

Thursday, November 1, 2012

  Actual Average Record
Temperature  
Mean Temperature 60 °F -  
Max Temperature 68 °F 61 °F 75 °F (1998)
Min Temperature 51 °F 47 °F 48 °F (1998)
Degree Days  
Heating Degree Days 6    
Growing Degree Days 10 (Base 50)    
Moisture  
Dew Point 49 °F    
Average Humidity 70    
Maximum Humidity 88    
Minimum Humidity 42    
Precipitation  
Precipitation 0.00 in - - ()
Sea Level Pressure  
Sea Level Pressure 29.42 in    
Wind  
Wind Speed 8 mph ()    
Max Wind Speed 22 mph    
Max Gust Speed 29 mph    
Visibility 6.6 miles    
Events Rain    
Averages and records for this station are not official NWS values.
T = Trace of Precipitation, MM = Missing Value Source: Averaged Metar Reports

Daily Weather History Graph

Daily Weather History Graph

Search for Another Location

Airport or City:

Trip Planner

Search our weather history database for the weather conditions in past years. The results will help you decide how hot, cold, wet, or windy it might be!

Date:

Astronomy

Nov. 01, 2012 Rise Set
Actual Time 6:56 AM CET 5:14 PM CET
Civil Twilight 6:26 AM CET 5:43 PM CET
Nautical Twilight 5:53 AM CET 6:17 PM CET
Astronomical Twilight 5:20 AM CET 6:50 PM CET
Moon 6:56 PM CET (11/1) 9:17 AM CET (11/1)
Length of Visible Light 11h 17m
Length of Day
10h 18m
Waning Gibbous, 94% of the Moon is Illuminated
Nov 1
Waning Gibbous
Nov 7
Last Quarter
Nov 13
New
Nov 20
First Quarter
Nov 28
Full

Hourly Weather History & Observations

Time (CET) Temp. Dew Point Humidity Pressure Visibility Wind Dir Wind Speed Gust Speed Precip Events Conditions
12:00 AM 57.2 °F 51.8 °F 82% 29.15 in 6.2 mi ESE 3.5 mph - N/A   Mostly Cloudy
12:30 AM 59.0 °F 51.8 °F 77% 29.15 in 6.2 mi Variable 13.8 mph 26.5 mph N/A   Mostly Cloudy
1:00 AM 58 °F 50 °F 68% 29.20 in 37 mi WNW 16.1 mph - -   Clear
1:00 AM 57.2 °F 50.0 °F 77% 29.18 in 6.2 mi WNW 16.1 mph 28.8 mph N/A   Mostly Cloudy
1:30 AM 55.4 °F 50.0 °F 82% 29.24 in 6.2 mi WNW 21.9 mph - N/A   Mostly Cloudy
2:00 AM 55.4 °F 50.0 °F 82% 29.24 in 6.2 mi NW 10.4 mph - N/A Rain Light Rain
2:30 AM 53.6 °F 50.0 °F 88% 29.27 in 5.0 mi Variable 10.4 mph - N/A   Mostly Cloudy
3:00 AM 53.6 °F 48.2 °F 82% 29.27 in 5.0 mi North 15.0 mph - N/A   Light Drizzle
3:30 AM 53.6 °F 46.4 °F 77% 29.30 in 6.2 mi Variable 11.5 mph - N/A   Mostly Cloudy
4:00 AM 53.6 °F 48.2 °F 82% 29.27 in 6.2 mi NNW 19.6 mph - N/A   Mostly Cloudy
4:30 AM 53.6 °F 48.2 °F 82% 29.30 in 6.2 mi NNW 17.3 mph - N/A   Mostly Cloudy
5:00 AM 55.4 °F 46.4 °F 72% 29.30 in 6.2 mi WNW 8.1 mph - N/A   Partly Cloudy
5:41 AM 53.6 °F 46.4 °F 77% 29.33 in 6.2 mi Variable 6.9 mph - N/A   Partly Cloudy
6:00 AM 57.2 °F 44.6 °F 63% 29.33 in 6.2 mi SSW 5.8 mph - N/A   Partly Cloudy
6:30 AM 53.6 °F 44.6 °F 72% 29.33 in 6.2 mi SSW 4.6 mph - N/A   Partly Cloudy
7:00 AM 52 °F 45 °F 70% 29.37 in 9 mi South 4.6 mph - -   Partly Cloudy
7:00 AM 51.8 °F 44.6 °F 76% 29.36 in 6.2 mi South 1.2 mph - N/A   Partly Cloudy
7:30 AM 55.4 °F 46.4 °F 72% 29.36 in 6.2 mi South 6.9 mph - N/A   Partly Cloudy
8:00 AM 59.0 °F 46.4 °F 63% 29.39 in 6.2 mi SW 9.2 mph - N/A   Partly Cloudy
8:30 AM 60.8 °F 48.2 °F 63% 29.42 in 6.2 mi Variable 3.5 mph - N/A   Scattered Clouds
9:00 AM 62.6 °F 48.2 °F 59% 29.42 in 6.2 mi Variable 2.3 mph - N/A   Scattered Clouds
9:30 AM 62.6 °F 48.2 °F 59% 29.44 in 6.2 mi NW 5.8 mph - N/A   Scattered Clouds
10:00 AM 64.4 °F 50.0 °F 59% 29.44 in 6.2 mi North 8.1 mph - N/A   Partly Cloudy
10:30 AM 66.2 °F 48.2 °F 52% 29.44 in 6.2 mi West 8.1 mph 25.3 mph N/A   Partly Cloudy
11:00 AM 68.0 °F 44.6 °F 43% 29.44 in 6.2 mi SW 10.4 mph - N/A   Partly Cloudy
11:30 AM 68.0 °F 50.0 °F 52% 29.44 in 6.2 mi South 8.1 mph - N/A   Partly Cloudy
12:00 PM 68.0 °F 50.0 °F 52% 29.44 in 6.2 mi South 5.8 mph - N/A   Partly Cloudy
12:30 PM 68.0 °F 48.2 °F 49% 29.47 in 6.2 mi SE 8.1 mph - N/A   Partly Cloudy
1:00 PM 67 °F 49 °F 42% 29.48 in 19 mi SE 9.2 mph - -   Scattered Clouds
1:00 PM 68.0 °F 50.0 °F 52% 29.47 in 6.2 mi SE 9.2 mph - N/A   Partly Cloudy
1:30 PM 68.0 °F 51.8 °F 56% 29.47 in 6.2 mi East 9.2 mph - N/A   Partly Cloudy
2:00 PM 68.0 °F 51.8 °F 56% 29.47 in 6.2 mi ESE 8.1 mph - N/A   Partly Cloudy
2:30 PM 66.2 °F 51.8 °F 60% 29.47 in 6.2 mi East 8.1 mph - N/A   Partly Cloudy
3:00 PM 66.2 °F 51.8 °F 60% 29.47 in 6.2 mi East 8.1 mph - N/A   Partly Cloudy
3:30 PM 66.2 °F 50.0 °F 56% 29.50 in 6.2 mi East 8.1 mph - N/A   Partly Cloudy
4:00 PM 66.2 °F 51.8 °F 60% 29.50 in 6.2 mi ESE 6.9 mph - N/A   Partly Cloudy
4:30 PM 66.2 °F 51.8 °F 60% 29.50 in 6.2 mi Variable 2.3 mph - N/A   Partly Cloudy
5:00 PM 62.6 °F 51.8 °F 68% 29.50 in 6.2 mi Variable 3.5 mph - N/A   Partly Cloudy
5:30 PM 59.0 °F 53.6 °F 82% 29.50 in 6.2 mi WSW 2.3 mph - N/A   Partly Cloudy
6:00 PM 57.2 °F 51.8 °F 82% 29.53 in 6.2 mi SW 3.5 mph - N/A   Partly Cloudy
7:00 PM 54 °F 51 °F 86% 29.56 in 9 mi SW 1.2 mph - -   Scattered Clouds
7:00 PM 53.6 °F 50.0 °F 88% 29.53 in 6.2 mi Variable 2.3 mph - N/A   Partly Cloudy
7:30 PM 53.6 °F 50.0 °F 88% 29.56 in 6.2 mi SW 3.5 mph - N/A   Partly Cloudy
8:00 PM 53.6 °F 50.0 °F 88% 29.56 in 6.2 mi SW 3.5 mph - N/A   Partly Cloudy
8:30 PM 53.6 °F 50.0 °F 88% 29.56 in 6.2 mi WSW 3.5 mph - N/A   Partly Cloudy
9:00 PM 53.6 °F 50.0 °F 88% 29.59 in - WSW 4.6 mph - N/A   Clear
9:30 PM 53.6 °F 48.2 °F 82% 29.59 in - WSW 4.6 mph - N/A   Clear
10:00 PM 51.8 °F 48.2 °F 88% 29.59 in - SSW 3.5 mph - N/A   Clear
10:30 PM 53.6 °F 46.4 °F 77% 29.59 in - SW 4.6 mph - N/A   Clear
11:00 PM 55.4 °F 46.4 °F 72% 29.59 in - WSW 3.5 mph - N/A   Clear
11:30 PM 53.6 °F 46.4 °F 77% 29.62 in - Variable 3.5 mph - N/A   Clear